Main page
METAR-TAF:

METAR-TAF

Airports :

Oil platform

K14-fa-1c, Netherlands

latitude: 53-16-10N, longitude: 3-37-40E, elevation: 28 m

Current weather observation

The report was made 48 minutes ago, at 18:55 UTC
Wind 33 kt from the West
Temperature 7°C
Humidity 81%
Pressure 1016 hPa
Visibility 10 km or more

METAR: EHKV 291855Z AUTO 27033KT 9999 NSC 07/04 Q1016

Time: 20:43 (19:43 UTC)


TAF: missing

Weather observations and forecasts of more than 4000 airports (METAR and TAF reports).

The available stations are represented by yellow and red dots on the map.

Hover mouse over dot to see the name of the station.

Then click to see weather observations and forecasts.

To change the map : click on the green buttons with a black cross to zoom in, on the green button with a dash to zoom out, or on the green arrows for adjacent maps.


METAR-TAF: